Content
SEND FEEDBACK

Daily
Averages
Monthly
Summary
China

KASHI, CHINA


Home > Asia > China
Elevation: 4236 feet     Latitude: 39 28N     Longitude: 075 58E

WEATHER
 
SELECT A DAY
Number of Records: 112,754;   Date Range: 7/6/03 - 9/28/14
 
SHARE

PRINT THIS DATA

[ ← Previous Day ]
WEATHER ALMANAC - JUNE 12, 2013
[ Next Day → ]
[ °C ]   °F
Weather ElementAverageHighLow
Temperature85.7 °F93.2 °F (5:00 pm)73 °F (8:00 am)
Dewpoint39 °F48 °F (8:00 am)35.6 °F (4:00 am)
Humidity18 %31 % (8:00 am)7 % (8:00 pm)
Barometer29.61 in29.77 in (10:00 am)29.25 in (8:00 pm)
Wind Speed10.9 mph24.6 mph (1:00 am)
Wind Gust35.8 mph (1:30 am)
Weather ElementAverage
Visibility7.3 mi
Wind DirectionSSE (172.6 °)

Weather ElementTotal
Precipitation---
Cooling Degree Days18.1 (Base 65)
Growing Degree Days33.1 (Base 50)
Averaged from 36 records on June 12, 2013
WEATHER CONDITIONS BREAKOUT
WIND DIRECTION BREAKOUT
WEATHER BY HOUR - JUNE 12, 2013
[ °C ]   °F
Local TimeTemperatureDewpointHumidityBarometerVisibilityWind DirectionWind SpeedGust SpeedPrecipitationEventsConditions
12:30 AM87.8 °F39.2 °F18 %29.68 inVariable22.4 mph33.6 mphClear
1:00 AM86.0 °F39.2 °F19 %29.68 inNorth (350°)24.6 mphClear
1:30 AM86.0 °F37.4 °F18 %29.68 inNorth (350°)24.6 mph35.8 mphClear
2:00 AM86.0 °F40.0 °F11 %29.31 in12.0 miNorth8.9 mphScattered Clouds
2:00 AM86.0 °F39.2 °F19 %29.68 inNorth (350°)24.6 mphClear
2:30 AM84.2 °F39.2 °F20 %29.68 inVariable24.6 mphClear
3:00 AM84.2 °F39.2 °F20 %29.68 inNorth (350°)24.6 mphClear
3:30 AM84.2 °F37.4 °F19 %29.68 inNorth (350°)24.6 mphClear
4:00 AM84.2 °F35.6 °F18 %29.68 inNorth (350°)20.1 mphClear
4:30 AM84.2 °F35.6 °F18 %29.65 inNorth (350°)22.4 mphClear
5:00 AM81.0 °F41.0 °F14 %29.34 in12.0 miSSE (160°)6.7 mphScattered Clouds
5:00 AM84.2 °F35.6 °F18 %29.71 inVariable8.9 mphClear
5:30 AM82.4 °F37.4 °F20 %29.71 in6.2 miENE (60°)6.7 mphPartly Cloudy
6:00 AM80.6 °F39.2 °F23 %29.71 in6.2 miENE (70°)4.5 mphPartly Cloudy
7:00 AM80.6 °F37.4 °F21 %29.71 in6.2 miVariable4.5 mphScattered Clouds
8:00 AM73.0 °F48.0 °F31 %29.40 in12.0 miCalmMostly Cloudy
8:00 AM78.8 °F39.2 °F24 %29.74 in6.2 miCalmScattered Clouds
9:00 AM77.0 °F42.8 °F29 %29.74 in6.2 miWNW (290°)4.5 mphPartly Cloudy
10:00 AM80.6 °F41.0 °F24 %29.77 in6.2 miSW (230°)4.5 mphPartly Cloudy
11:00 AM80.6 °F42.8 °F26 %29.77 in4.3 miSouth (190°)6.7 mphPartly Cloudy
12:00 PM82.4 °F37.4 °F20 %29.77 in5.0 miSouth (180°)11.2 mph
1:00 PM86.0 °F39.2 °F19 %29.77 in5.0 miSSE (160°)8.9 mph
2:00 PM89.0 °F42.0 °F11 %29.37 in12.0 miEast (90°)8.9 mphClear
2:00 PM87.8 °F41.0 °F19 %29.74 in4.3 miSSE (150°)8.9 mph
3:00 PM89.6 °F39.2 °F17 %29.71 in4.3 miSSE (150°)8.9 mph
4:00 PM89.6 °F37.4 °F16 %29.68 in4.3 miSSE (150°)8.9 mph
5:00 PM93.2 °F37.4 °F14 %29.65 in4.3 miSE (130°)8.9 mph
5:00 PM93.0 °F40.0 °F9 %29.27 in12.0 miSSW (200°)2.2 mphClear
6:00 PM91.4 °F37.4 °F15 %29.62 in5.6 miSouth (170°)8.9 mph
7:00 PM91.4 °F35.6 °F14 %29.59 in5.6 miSSE (160°)8.9 mph
8:00 PM93.0 °F37.0 °F7 %29.25 in12.0 miSE (140°)2.2 mphClear
8:00 PM93.2 °F37.4 °F14 %29.59 in5.6 miESE (110°)8.9 mph
9:00 PM91.4 °F41.0 °F17 %29.59 inSE (130°)6.7 mphClear
10:00 PM89.6 °F39.2 °F17 %29.62 inVariable2.2 mphClear
11:00 PM86.0 °F40.0 °F11 %29.27 in12.0 miNNW (340°)4.5 mphScattered Clouds
11:00 PM86.0 °F37.4 °F18 %29.62 in6.2 miNNW (330°)13.4 mphScattered Clouds
Hourly data recorded from ZWSH, located miles away from Kashi, China







STORIES FROM OUR PARTNERS